Weather History for La Crosse, WI

Change the Weather History Date:

Wednesday, September 4, 2013

  Actual Average Record
Temperature  
Mean Temperature 72 °F 68 °F  
Max Temperature 88 °F 78 °F 95 °F (1925)
Min Temperature 55 °F 57 °F 37 °F (1891)
Degree Days  
Heating Degree Days 0 2  
Month to date heating degree days 6 6  
Since 1 July heating degree days 20 26  
Cooling Degree Days 7 4  
Month to date cooling degree days 16 18  
Year to date cooling degree days 801 718  
Growing Degree Days 22 (Base 50)    
Moisture  
Dew Point 60 °F    
Average Humidity 70    
Maximum Humidity 93    
Minimum Humidity 46    
Precipitation  
Precipitation 0.00 in 0.12 in 1.22 in (1968)
Month to date precipitation T 0.49  
Year to date precipitation 27.15 24.45  
Snow  
Snow 0.00 in 0.00 in 0.00 in (2002)
Month to date snowfall 0.0 0.0  
Since 1 July snowfall T 0.0  
Snow Depth 0.00 in    
Sea Level Pressure  
Sea Level Pressure 30.06 in    
Wind  
Wind Speed 5 mph (South)    
Max Wind Speed 10 mph    
Max Gust Speed 12 mph    
Visibility 10 miles    
Events      
T = Trace of Precipitation, MM = Missing Value Source: NWS Daily Summary

Daily Weather History Graph

Daily Weather History Graph

Search for Another Location

Airport:

Trip Planner

Search our weather history database for the weather conditions in past years. The results will help you decide how hot, cold, wet, or windy it might be!

Date:

Astronomy

Sep. 04, 2013 Rise Set
Actual Time 6:32 AM CDT 7:34 PM CDT
Civil Twilight 6:02 AM CDT 8:04 PM CDT
Nautical Twilight 5:27 AM CDT 8:39 PM CDT
Astronomical Twilight 4:50 AM CDT 9:16 PM CDT
Moon 5:44 AM CDT (9/4) 6:53 PM CDT (9/4)
Length of Visible Light 14h 01m
Length of Day
13h 02m
Waning Crescent, 1% of the Moon is Illuminated
Sep 4
Waning Crescent
Sep 5
New
Sep 12
First Quarter
Sep 19
Full
Sep 26
Last Quarter

Hourly Weather History & Observations

Time (CDT) Temp. Heat Index Dew Point Humidity Pressure Visibility Wind Dir Wind Speed Gust Speed Precip Events Conditions
12:53 AM 59.0 °F - 55.0 °F 87% 30.03 in 10.0 mi Calm Calm - N/A   Clear
1:53 AM 57.9 °F - 55.0 °F 90% 30.03 in 10.0 mi Calm Calm - N/A   Clear
2:53 AM 55.0 °F - 53.1 °F 93% 30.04 in 10.0 mi SE 3.5 mph - N/A   Clear
3:53 AM 57.0 °F - 55.0 °F 93% 30.05 in 10.0 mi South 6.9 mph - N/A   Clear
4:53 AM 57.9 °F - 55.9 °F 93% 30.06 in 10.0 mi South 6.9 mph - N/A   Clear
5:53 AM 57.0 °F - 55.0 °F 93% 30.06 in 10.0 mi South 8.1 mph - N/A   Clear
6:20 AM 57.2 °F - 55.4 °F 94% 30.09 in 10.0 mi South 9.2 mph - N/A   Partly Cloudy
6:53 AM 57.9 °F - 55.9 °F 93% 30.09 in 10.0 mi South 8.1 mph - N/A   Clear
7:53 AM 60.1 °F - 57.0 °F 90% 30.10 in 10.0 mi South 9.2 mph - N/A   Clear
8:53 AM 64.0 °F - 55.9 °F 75% 30.09 in 10.0 mi South 6.9 mph - N/A   Clear
9:53 AM 70.0 °F - 57.0 °F 63% 30.09 in 10.0 mi South 6.9 mph - N/A   Clear
10:53 AM 73.0 °F - 57.9 °F 59% 30.09 in 10.0 mi SSE 5.8 mph - N/A   Clear
11:53 AM 79.0 °F - 60.1 °F 52% 30.09 in 10.0 mi ESE 5.8 mph - N/A   Clear
12:53 PM 84.0 °F 84.9 °F 63.0 °F 49% 30.08 in 10.0 mi Calm Calm - N/A   Clear
1:53 PM 84.9 °F 86.1 °F 64.0 °F 49% 30.07 in 10.0 mi Variable 4.6 mph - N/A   Clear
2:53 PM 88.0 °F 89.3 °F 64.0 °F 45% 30.05 in 10.0 mi Variable 3.5 mph - N/A   Clear
3:53 PM 87.1 °F 88.9 °F 64.9 °F 48% 30.04 in 10.0 mi NW 6.9 mph - N/A   Clear
4:53 PM 88.0 °F 89.6 °F 64.9 °F 46% 30.03 in 10.0 mi WNW 4.6 mph - N/A   Clear
5:53 PM 88.0 °F 90.3 °F 66.0 °F 48% 30.03 in 10.0 mi NW 5.8 mph - N/A   Clear
6:53 PM 84.0 °F 86.5 °F 66.9 °F 56% 30.04 in 10.0 mi West 4.6 mph - N/A   Clear
7:53 PM 77.0 °F - 66.9 °F 71% 30.05 in 10.0 mi Calm Calm - N/A   Clear
8:53 PM 75.9 °F - 66.9 °F 74% 30.06 in 10.0 mi NNE 6.9 mph - N/A   Clear
9:53 PM 73.0 °F - 66.9 °F 81% 30.07 in 10.0 mi Calm Calm - N/A   Clear
10:53 PM 72.0 °F - 66.9 °F 84% 30.09 in 10.0 mi North 4.6 mph - N/A   Clear
11:53 PM 72.0 °F - 62.1 °F 71% 30.10 in 10.0 mi North 4.6 mph - N/A   Clear